[[{"header":{"parameterUnit":"m.s-1","parameterCategory":1,"la1":30.2991,"la2":30.254,"lo1":-89.0895,"lo2":-89.0444,"dy":0.0017,"dx":0.0017,"nx":28,"ny":28,"refTime":"2023-10-10T09:00:00:Z","depth":0,"parameterNumber":2,"parameterNumberName":"U-component_of_WINDS"},"data":[0,0,0,0,0,0,0,0,0,0,0,0,0,0,0,0,0,0,0,0,0,0,0,0,0,0,0,0,0,0,0,0,0,0,0,0,0,0,0,0,0,0,0,0,0,0,0,0,0,0,0,0,0,0,0,0,0,0,-6.2205,-6.221,0,-6.2643,-6.2648,-6.2653,-6.2658,-6.2653,-6.2647,-6.2642,-6.3105,-6.3122,-6.314,0,0,0,0,0,0,0,0,0,0,0,0,0,-6.1393,-6.1408,-6.2204,-6.221,-6.2215,-6.2642,-6.2648,-6.2654,-6.2659,-6.2652,-6.2645,-6.2639,-6.3099,-6.312,-6.3141,0,0,0,0,0,0,0,0,0,0,0,0,0,-6.178,-6.1413,-6.2204,-6.2269,-6.2279,-6.2641,-6.2648,-6.2655,-6.2661,-6.2652,-6.2644,-6.2636,-6.3093,-6.3118,-6.3144,-6.3474,0,0,-6.3224,-6.3236,0,0,0,0,0,0,0,0,-6.1758,-6.181,-6.2254,-6.2265,-6.2277,-6.2587,-6.2532,-6.293,-6.2663,-6.2516,-6.2642,-6.2632,-6.2941,-6.2979,-6.308,-6.3496,-6.3515,-6.3227,-6.3243,-6.3254,-6.3261,0,0,0,0,0,0,0,-6.1731,-6.1791,-6.2378,-6.2261,-6.2275,-6.2283,-6.2329,-6.2607,-6.2771,-6.2528,-6.253,-6.2581,-6.2945,-6.3054,-6.3091,-6.3522,-6.3226,-6.3249,-6.3266,-6.3276,-6.4246,-6.4255,0,0,0,0,0,0,-6.1689,-6.1769,-6.2364,-6.2391,-6.1991,-6.2305,-6.2356,-6.2496,-6.2767,-6.28,-6.2587,-6.2579,-6.3014,-6.306,-6.3107,-6.3521,-6.3254,-6.3278,-6.3294,-6.4236,-6.4248,-6.4259,0,0,0,0,0,0,-6.1671,-6.1742,-6.2347,-6.2081,-6.2158,-6.2327,-6.2485,-6.2509,-6.2618,-6.2812,-6.2843,-6.2668,-6.3009,-6.307,-6.3385,-6.3537,-6.329,-6.3314,-6.4224,-6.424,-6.4254,-6.4346,0,0,0,0,0,0,-6.1648,-6.1735,-6.1857,-6.2083,-6.2172,-6.2611,-6.2494,-6.2524,-6.2662,-6.2655,-6.2895,-6.2927,-6.3007,-6.3346,-6.3411,-6.3569,-6.3335,-6.4212,-6.4231,-6.4249,-6.433,-6.4362,-6.4389,0,0,0,0,0,-6.1619,-6.1866,-6.1863,-6.1935,-6.2327,-6.2619,-6.2671,-6.2754,-6.2673,-6.2802,-6.2928,-6.292,-6.3508,-6.3378,-6.3451,-6.362,-6.4203,-6.4226,-6.4247,-6.4317,-6.4356,-6.4389,0,0,0,0,0,0,-6.1656,-6.1896,-6.1896,-6.2222,-6.24,-6.2619,-6.2783,-6.279,-6.2998,-6.2984,-6.3082,-6.3137,-6.3453,-6.3567,-6.3417,-6.396,-6.3847,-6.3885,-6.3875,-6.3913,-6.3942,-6.3912,-6.3357,0,0,0,0,0,-6.1701,-6.1913,-6.2113,-6.2383,-6.2472,-6.2612,-6.2742,-6.2791,-6.2981,-6.3058,-6.3206,-6.3397,-6.3626,-6.3775,-6.3995,-6.4345,-6.4405,-6.4498,-6.4528,-6.4551,-6.4586,-6.4793,-6.484,-6.4333,-6.4333,-6.4332,0,0,-6.1799,-6.1956,-6.2084,-6.2394,-6.2538,-6.2763,-6.2675,-6.2914,-6.3086,-6.3096,-6.3404,-6.352,-6.374,-6.4077,-6.4232,-6.4182,-6.4739,-6.458,-6.4597,-6.462,-6.4821,-6.4869,-6.4911,-6.4348,-6.4345,-6.4343,0,0,-6.2093,-6.2228,-6.2473,-6.2619,-6.2838,-6.2931,-6.2989,-6.321,-6.3288,-6.3597,-6.3613,-6.3821,-6.4209,-6.4369,-6.4501,-6.4865,-6.4871,-6.4934,-6.5093,-6.5293,-6.5333,-6.5369,-6.5511,-6.5559,-6.4967,-6.4967,-6.4967,0,-6.2188,-6.2522,-6.2598,-6.2842,-6.2983,-6.2999,-6.3254,-6.3393,-6.3674,-6.3775,-6.3712,-6.4209,-6.4356,-6.4737,-6.4827,-6.4929,-6.5009,-6.491,-6.532,-6.5357,-6.5392,-6.5529,-6.558,-6.4974,-6.4973,-6.4972,-6.4972,0,-6.2634,-6.2866,-6.3038,-6.3308,-6.3468,-6.3715,-6.3838,-6.3992,-6.4028,-6.4131,-6.4453,-6.4632,-6.4894,-6.4987,-6.5024,-6.5378,-6.5341,-6.5297,-6.5187,-6.5446,-6.5577,-6.5629,-6.4984,-6.4982,-6.498,-6.4978,0,0,-6.2964,-6.3276,-6.3339,-6.3467,-6.3712,-6.3897,-6.415,-6.4403,-6.4539,-6.4734,-6.4956,-6.5288,-6.5253,-6.5403,-6.546,-6.5635,-6.5927,-6.5573,-6.558,-6.5642,-6.6342,-6.638,-6.6438,-6.5929,-6.5939,-6.5947,-6.6328,0,-6.3292,-6.3735,-6.3816,-6.4207,-6.443,-6.4453,-6.4675,-6.4854,-6.4959,-6.5169,-6.5286,-6.5525,-6.5454,-6.5547,-6.572,-6.5854,-6.6071,-6.5827,-6.6148,-6.6158,-6.61,-6.6504,-6.6542,-6.6892,-6.6378,-6.6386,-6.6392,0,-6.3733,-6.3939,-6.4352,-6.4577,-6.4674,-6.487,-6.5116,-6.5312,-6.5522,-6.5586,-6.5758,-6.5797,-6.6071,-6.5943,-6.6329,-6.6162,-6.6299,-6.6386,-6.6402,-6.6442,-6.6296,-6.6565,-6.7004,-6.7061,-6.6471,-6.6465,-6.6459,0,-6.3945,-6.4325,-6.4625,-6.4732,-6.4999,-6.5139,-6.5258,-6.5458,-6.5609,-6.5825,-6.5927,-6.6172,-6.631,-6.6504,-6.6613,-6.6508,-6.6996,-6.6874,-6.7068,-6.7066,-6.7175,-6.7168,-6.7653,-6.7247,-6.7246,-6.7245,-6.7244,0,-6.4308,-6.4563,-6.4725,-6.491,-6.52,-6.5293,-6.558,-6.5698,-6.5877,-6.6093,-6.6127,-6.633,-6.6457,-6.6682,-6.6769,-6.7083,-6.7142,-6.7211,-6.7233,-6.7213,-6.7206,-6.7309,-6.7292,-6.7259,-6.7256,-6.7253,-6.7251,0,-6.4596,-6.4712,-6.5043,-6.5269,-6.5333,-6.5538,-6.5737,-6.5923,-6.6028,-6.6302,-6.6372,-6.654,-6.6807,-6.6933,-6.7264,-6.7324,-6.7684,-6.7684,-6.7613,-6.7623,-6.7814,-6.7798,-6.8389,-6.8477,-6.8003,-6.8008,-6.8011,0,-6.4823,-6.502,-6.5269,-6.5414,-6.5537,-6.5769,-6.5924,-6.6027,-6.6189,-6.6447,-6.6605,-6.6872,-6.7092,-6.752,-6.7678,-6.7935,-6.7949,-6.8138,-6.7988,-6.7966,-6.7966,-6.7956,-6.7983,-6.8168,-6.8172,-6.8176,-6.8179,0,-6.5219,-6.5269,-6.5488,-6.5732,-6.5916,-6.6113,-6.6307,-6.6426,-6.6562,-6.6744,-6.7015,-6.7186,-6.7526,-6.7797,-6.8066,-6.8198,-6.8218,-6.8224,-6.8285,-6.8272,-6.8227,-6.8265,-6.7698,-6.8212,-6.8209,-6.8206,-6.8205,-6.8203,-6.5491,-6.5671,-6.5877,-6.6124,-6.6281,-6.6464,-6.6653,-6.6783,-6.701,-6.7293,-6.7341,-6.7634,-6.785,-6.8213,-6.8355,-6.8593,-6.855,-6.8634,-6.8658,-6.868,-6.8696,-6.8181,-6.8641,-6.864,-6.8639,-6.8639,-6.8638,0,-6.5898,-6.6032,-6.6258,-6.653,-6.6727,-6.672,-6.6938,-6.7107,-6.7362,-6.7559,-6.7776,-6.8096,-6.836,-6.854,-6.8811,-6.8968,-6.8985,-6.9037,-6.9031,-6.9065,-6.8713,-6.8638,-6.902,-6.902,-6.902,-6.902,-6.9019,-6.9019,-6.6133,-6.6441,-6.6518,-6.6909,-6.7044,-6.7328,-6.7455,-6.7629,-6.7788,-6.8142,-6.8361,-6.8474,-6.867,-6.8956,-6.9203,-6.925,-6.9354,-6.9409,-6.9457,-6.9127,-6.9087,-6.9049,-6.8981,-6.9428,-6.9428,-6.9791,-6.9794,-6.9796]},{"header":{"parameterUnit":"m.s-1","parameterCategory":1,"la1":30.2991,"la2":30.254,"lo1":-89.0895,"lo2":-89.0444,"dy":0.0017,"dx":0.0017,"nx":28,"ny":28,"refTime":"2023-10-10T09:00:00:Z","depth":0,"parameterNumber":3,"parameterNumberName":"V-component_of_WINDS"},"data":[0,0,0,0,0,0,0,0,0,0,0,0,0,0,0,0,0,0,0,0,0,0,0,0,0,0,0,0,0,0,0,0,0,0,0,0,0,0,0,0,0,0,0,0,0,0,0,0,0,0,0,0,0,0,0,0,0,0,-9.3024,-9.3023,0,-9.2954,-9.2953,-9.2953,-9.2808,-9.2806,-9.2803,-9.28,-9.2726,-9.2727,-9.2728,0,0,0,0,0,0,0,0,0,0,0,0,0,-9.3026,-9.3027,-9.3024,-9.3023,-9.3022,-9.2954,-9.2953,-9.2952,-9.2809,-9.2805,-9.2802,-9.2799,-9.2726,-9.2727,-9.2728,0,0,0,0,0,0,0,0,0,0,0,0,0,-9.2998,-9.3027,-9.3024,-9.2942,-9.2934,-9.2955,-9.2953,-9.2952,-9.281,-9.2805,-9.2801,-9.2797,-9.2726,-9.2727,-9.2728,-9.2821,0,0,-9.2731,-9.2732,0,0,0,0,0,0,0,0,-9.3,-9.2998,-9.2955,-9.2948,-9.2939,-9.2886,-9.2927,-9.2908,-9.2811,-9.2857,-9.28,-9.2795,-9.2783,-9.2779,-9.2775,-9.2818,-9.2815,-9.2731,-9.2732,-9.2732,-9.2733,0,0,0,0,0,0,0,-9.3002,-9.3,-9.2996,-9.2955,-9.2945,-9.2907,-9.2898,-9.2923,-9.2845,-9.2853,-9.2842,-9.2836,-9.2777,-9.2774,-9.2772,-9.2813,-9.2731,-9.2732,-9.2733,-9.2733,-9.2921,-9.2925,0,0,0,0,0,0,-9.3016,-9.3003,-9.2998,-9.2994,-9.2959,-9.2911,-9.2901,-9.2907,-9.2844,-9.283,-9.284,-9.2829,-9.2775,-9.2771,-9.2769,-9.2869,-9.2732,-9.2733,-9.2734,-9.2917,-9.2922,-9.2927,0,0,0,0,0,0,-9.3017,-9.3017,-9.3001,-9.2995,-9.299,-9.2915,-9.2923,-9.2908,-9.2905,-9.2834,-9.2819,-9.2851,-9.2771,-9.2768,-9.2808,-9.2865,-9.2734,-9.2735,-9.2912,-9.2919,-9.2925,-9.3073,0,0,0,0,0,0,-9.3018,-9.3018,-9.3055,-9.2997,-9.2991,-9.3043,-9.2927,-9.291,-9.2907,-9.2893,-9.2841,-9.2829,-9.2767,-9.2807,-9.2809,-9.2864,-9.2736,-9.2906,-9.2915,-9.2922,-9.3063,-9.3084,-9.3102,0,0,0,0,0,-9.3018,-9.31,-9.3057,-9.3058,-9.3036,-9.3047,-9.3043,-9.2972,-9.2913,-9.2947,-9.2901,-9.283,-9.2859,-9.2812,-9.2813,-9.2869,-9.2902,-9.2912,-9.2922,-9.3054,-9.308,-9.3101,0,0,0,0,0,0,-9.3167,-9.3091,-9.3043,-9.311,-9.3086,-9.3023,-9.3064,-9.3003,-9.2995,-9.2982,-9.2893,-9.2883,-9.2933,-9.2905,-9.2855,-9.2952,-9.2869,-9.2879,-9.2969,-9.2993,-9.3012,-9.3016,-9.2737,0,0,0,0,0,-9.3207,-9.3225,-9.3157,-9.3222,-9.3213,-9.3141,-9.3143,-9.309,-9.3062,-9.3051,-9.3008,-9.2981,-9.2983,-9.2987,-9.2986,-9.3058,-9.3042,-9.3097,-9.3117,-9.3133,-9.3142,-9.3172,-9.3194,-9.2959,-9.2959,-9.2959,0,0,-9.3291,-9.3252,-9.3269,-9.3251,-9.3226,-9.3243,-9.3134,-9.3158,-9.3168,-9.3054,-9.3088,-9.3056,-9.302,-9.3075,-9.3097,-9.3053,-9.3203,-9.3145,-9.3159,-9.3159,-9.3184,-9.3207,-9.3226,-9.2966,-9.2964,-9.2963,0,0,-9.3452,-9.3426,-9.3475,-9.3451,-9.3415,-9.3366,-9.3378,-9.3323,-9.3297,-9.333,-9.3243,-9.3253,-9.3261,-9.3237,-9.3226,-9.3373,-9.3305,-9.3375,-9.3476,-9.3506,-9.3525,-9.3541,-9.3588,-9.3606,-9.3385,-9.3385,-9.3385,0,-9.356,-9.3584,-9.3507,-9.3535,-9.3528,-9.3425,-9.3471,-9.3452,-9.3417,-9.3413,-9.3365,-9.3367,-9.3337,-9.3382,-9.3417,-9.3414,-9.342,-9.3379,-9.3529,-9.3544,-9.3557,-9.3601,-9.362,-9.3393,-9.3392,-9.3391,-9.3391,0,-9.3716,-9.3734,-9.3777,-9.3744,-9.3742,-9.378,-9.3706,-9.3712,-9.3658,-9.3613,-9.3645,-9.3604,-9.359,-9.3597,-9.3546,-9.3633,-9.3606,-9.3545,-9.3458,-9.3589,-9.3629,-9.3645,-9.3405,-9.3402,-9.34,-9.3398,0,0,-9.397,-9.3892,-9.3908,-9.389,-9.384,-9.3851,-9.3882,-9.3867,-9.3872,-9.3851,-9.3871,-9.3877,-9.3818,-9.3806,-9.375,-9.3778,-9.3889,-9.3711,-9.3709,-9.3742,-9.3976,-9.402,-9.4041,-9.3845,-9.3848,-9.385,-9.3977,0,-9.4116,-9.4164,-9.4094,-9.4157,-9.4169,-9.407,-9.4095,-9.4066,-9.4024,-9.4026,-9.3979,-9.3982,-9.3907,-9.3898,-9.3921,-9.3871,-9.3934,-9.3861,-9.3858,-9.3859,-9.3867,-9.4062,-9.411,-9.4232,-9.3993,-9.3995,-9.3997,0,-9.4293,-9.4279,-9.4343,-9.4284,-9.4286,-9.4311,-9.4289,-9.4294,-9.4257,-9.4224,-9.4208,-9.4141,-9.4162,-9.4081,-9.4106,-9.4058,-9.4052,-9.4027,-9.403,-9.4024,-9.3934,-9.4058,-9.427,-9.4287,-9.4022,-9.402,-9.4018,0,-9.4465,-9.4462,-9.4498,-9.4487,-9.4421,-9.4439,-9.4412,-9.4371,-9.4365,-9.4345,-9.4339,-9.4324,-9.4314,-9.4301,-9.423,-9.4178,-9.4262,-9.4175,-9.4231,-9.4232,-9.4251,-9.425,-9.4461,-9.4255,-9.4254,-9.4254,-9.4254,0,-9.4634,-9.4676,-9.4574,-9.4597,-9.4639,-9.4556,-9.46,-9.4562,-9.4525,-9.4536,-9.4449,-9.446,-9.4367,-9.4367,-9.4312,-9.4337,-9.4335,-9.4306,-9.4289,-9.4311,-9.4314,-9.4304,-9.4292,-9.4259,-9.4258,-9.4257,-9.4256,0,-9.4833,-9.4767,-9.4799,-9.4733,-9.4717,-9.4751,-9.4692,-9.4708,-9.466,-9.4673,-9.4672,-9.4595,-9.4589,-9.4517,-9.4497,-9.4459,-9.4505,-9.4475,-9.4518,-9.4506,-9.4564,-9.4558,-9.4773,-9.4794,-9.4579,-9.4581,-9.4583,0,-9.4943,-9.4973,-9.4909,-9.491,-9.4887,-9.489,-9.4882,-9.4801,-9.4797,-9.4753,-9.4773,-9.4761,-9.4746,-9.4741,-9.4682,-9.4664,-9.463,-9.4706,-9.4626,-9.4645,-9.4624,-9.4622,-9.4622,-9.4722,-9.4725,-9.4727,-9.4729,0,-9.5144,-9.5109,-9.5103,-9.5084,-9.5078,-9.5059,-9.5034,-9.504,-9.4949,-9.4948,-9.4941,-9.493,-9.4907,-9.4894,-9.4864,-9.4833,-9.4764,-9.4755,-9.4765,-9.4786,-9.4808,-9.4791,-9.4559,-9.475,-9.4748,-9.4746,-9.4745,-9.4744,-9.5299,-9.5318,-9.5275,-9.5269,-9.5242,-9.522,-9.5229,-9.5181,-9.5174,-9.515,-9.5102,-9.5101,-9.5056,-9.501,-9.4984,-9.4979,-9.4939,-9.4957,-9.496,-9.4965,-9.4974,-9.4812,-9.4974,-9.4973,-9.4973,-9.4972,-9.4972,0,-9.5491,-9.5457,-9.5453,-9.542,-9.5415,-9.5352,-9.532,-9.5319,-9.5319,-9.5285,-9.5271,-9.526,-9.5246,-9.5184,-9.5161,-9.5169,-9.5137,-9.5166,-9.5162,-9.5155,-9.5014,-9.5004,-9.5192,-9.5192,-9.5192,-9.5192,-9.5192,-9.5192,-9.559,-9.5618,-9.5577,-9.5588,-9.5553,-9.5552,-9.5539,-9.5516,-9.5487,-9.5479,-9.5466,-9.5426,-9.5379,-9.5351,-9.5333,-9.5315,-9.5308,-9.5347,-9.5318,-9.5187,-9.5166,-9.5145,-9.5135,-9.5348,-9.5348,-9.5458,-9.5459,-9.546]}]]